Home   Weather   Kloten   Past weeks

Flag for Switzerland Past Weather in Kloten, Zurich, Switzerland — Yesterday and Last 2 Weeks

Now
19 °F

Light snow. Ice fog.


Feels Like: 14 °F
Forecast: 15 / 26 °F
Wind: 3 mph from Northeast

Location: Zurich-Kloten

Current Time: Jan 23, 2017 at 9:38:07 am

Latest Report: Jan 23, 2017 at 8:50 am


Visibility: 1 mi

Pressure: 30.21 "Hg

Humidity: 93%

Dew Point: 18 °F

Location of KlotenLocation

Past Weather in Kloten — Graph

°F

Kloten Temperature Yesterday

Maximum temperature yesterday: 23 °F (at 2:20 pm)
Minimum temperature yesterday: 21 °F (at 12:20 am)
Average temperature yesterday: 21 °F

High & Low Weather Summary for the Past Weeks

 TemperatureHumidityPressure
High43 °F (Jan 12, 1:50 pm)100% (Jan 8, 9:50 pm)30.45 "Hg (Jan 8, 9:50 pm)
Low19 °F (Jan 16, 6:50 am)61% (Jan 13, 2:20 am)29.50 "Hg (Jan 12, 11:50 pm)
Average28 °F84%30.17 "Hg
* Reported Jan 8 8:20 am — Jan 23 8:20 am, Kloten, Weather by CustomWeather, © 2017

Note: Actual official high and low records may vary slightly from our data, if they occured in-between our weather recording intervals... More about our weather records

Advertising

Kloten Weather History for the Previous 24 Hours

Scroll right to see more
 ConditionsComfort  
Time TempWeatherWind HumidityBarometerVisibility
8:20 am
Mon, Jan 23
19 °FLight snow. Ice fog.5 mph93%30.21 "Hg1 mi
7:50 am19 °FIce fog.2 mph93%30.21 "Hg1 mi
7:20 am19 °FLight snow. Ice fog.3 mph93%30.21 "Hg1 mi
6:50 am19 °FLight snow. Low clouds.2 mph93%30.21 "Hg1 mi
6:20 am19 °FMostly cloudy.2 mph93%30.21 "Hg1 mi
5:50 am19 °FLow clouds.2 mph100%30.21 "Hg1 mi
5:20 am19 °FIce fog.2 mph93%30.21 "Hg1 mi
4:50 am19 °FIce fog.2 mph93%30.21 "Hg1 mi
4:20 am19 °FIce fog.2 mph100%30.21 "Hg1 mi
3:50 am19 °FIce fog.2 mph100%30.21 "Hg1 mi
3:20 am19 °FIce fog.2 mph100%30.21 "Hg1 mi
2:50 am21 °FIce fog.3 mph93%30.21 "Hg1 mi
2:20 am21 °FIce fog.2 mph93%30.24 "Hg1 mi
1:50 am21 °FIce fog.2 mph93%30.24 "Hg1 mi
12:50 am21 °FIce fog.2 mph93%30.24 "Hg2 mi
12:20 am21 °FIce fog.2 mph93%30.24 "Hg2 mi
11:50 pm
Sun, Jan 22
21 °FLight snow. Low clouds.2 mph93%30.24 "Hg2 mi
11:20 pm21 °FIce fog.1 mph93%30.24 "Hg2 mi
10:50 pm21 °FIce fog.2 mph93%30.24 "Hg2 mi
10:20 pm21 °FIce fog.2 mph93%30.24 "Hg3 mi
9:50 pm21 °FIce fog.3 mph93%30.24 "Hg3 mi
9:20 pm21 °FIce fog.2 mph93%30.24 "Hg3 mi
8:50 pm21 °FIce fog.2 mph86%30.24 "Hg3 mi
8:20 pm21 °FIce fog.2 mph93%30.24 "Hg3 mi
7:50 pm21 °FIce fog.1 mph93%30.24 "Hg2 mi
7:20 pm21 °FLight snow. Mostly cloudy.2 mph93%30.21 "Hg2 mi
6:50 pm21 °FIce fog.No wind93%30.21 "Hg2 mi
6:20 pm21 °FIce fog.1 mph93%30.21 "Hg2 mi
5:50 pm21 °FIce fog.2 mph93%30.21 "Hg2 mi
5:20 pm23 °FIce fog.2 mph86%30.21 "Hg2 mi
4:50 pm23 °FIce fog.2 mph86%30.21 "Hg2 mi
4:20 pm23 °FIce fog.1 mph86%30.21 "Hg2 mi
3:50 pm23 °FIce fog.2 mph86%30.21 "Hg2 mi
3:20 pm23 °FIce fog.1 mph86%30.21 "Hg2 mi
2:50 pm23 °FIce fog.1 mph86%30.21 "Hg2 mi
2:20 pm23 °FIce fog.3 mph86%30.21 "Hg2 mi
1:50 pm21 °FIce fog.5 mph93%30.21 "Hg2 mi
1:20 pm21 °FIce fog.1 mph93%30.24 "Hg2 mi
12:50 pm21 °FIce fog.3 mph93%30.24 "Hg2 mi
12:20 pm21 °FIce fog.3 mph93%30.24 "Hg2 mi
11:50 am21 °FIce fog.3 mph93%30.27 "Hg2 mi
11:20 am21 °FIce fog.5 mph93%30.27 "Hg2 mi
10:50 am21 °FIce fog.3 mph93%30.27 "Hg2 mi
10:20 am21 °FIce fog.5 mph93%30.27 "Hg1 mi
9:50 am21 °FIce fog.3 mph93%30.27 "Hg1 mi
9:20 am21 °FIce fog.3 mph93%30.27 "Hg1 mi
Weather by CustomWeather, © 2017

See weather overviewHow to use our weather pages